Other Public Products
Issued by NWS Grand Forks, ND

Home | Current Version | Previous Version | Graphics & Text | Print | Product List | Glossary On
Versions: 1 2 3 4 5 6 7 8 9 10 11 12 13 14 15 16 17 18 19 20 21 22 23 24 25 26 27 28 29 30 31 32 33 34 35 36 37 38 39 40 41 42 43 44 45 46 47 48 49 50
000
FPUS83 KFGF 201710
OPUFGF
PRAIRIE TO PINES WEATHER ROUNDUP
NATIONAL WEATHER SERVICE EASTERN NORTH DAKOTA/GRAND FORKS ND
1200 PM CDT FRI OCT 20 2017

 **SATELLITE DATA USED TO AUGMENT SKY COVER AT AUTOMATED STATIONS**
 *****  WEATHER ACROSS EASTERN NORTH DAKOTA  *****

CITY           SKY/WX    TMP DP  RH WIND       PRES   REMARKS
GRAND FORKS    FAIR      71  51  49 S23G32    29.49F
GRAND FORKS AF FAIR      67  49  52 S18       29.48F
GRAND CITY NWS NOT AVBL
BUXTON         NOT AVBL
DEVILS LAKE    FAIR      64  49  57 SE17      29.42F
FARGO          FAIR      70  51  51 S18G31    29.55F
WAHPETON ARPT  NOT AVBL
$$

 *****  WEATHER ACROSS CENTRAL AND WESTERN NORTH DAKOTA  *****

CITY           SKY/WX    TMP DP  RH WIND       PRES   REMARKS
JAMESTOWN      FAIR      63  48  58 S15G28    29.47F
BISMARCK       FAIR      70  47  43 S10       29.41F
MINOT          FAIR      64  38  38 S15       29.32F
MINOT AFB      FAIR      62  38  41 S12       29.31F
GARRISON         N/A     61  42  49 S10       29.36F
WILLISTON      FAIR      58  34  40 S7        29.32F
DICKINSON      FAIR      72  32  23 SW5       29.35F
HETTINGER      FAIR      68  32  26 S7        29.42F
$$

 *****  OTHER OBSERVATIONS NORTHEAST NORTH DAKOTA  *****

CITY           SKY/WX    TMP DP  RH WIND       PRES   REMARKS
WALHALLA       FAIR     N/A N/A N/A S15G24    29.45F
LANGDON        FAIR      66  50  55 S22       29.44F
CAVALIER       FAIR      61  52  72 S18G24    29.46F
GRAFTON        FAIR      66  50  55 S22       29.49F
CANDO          FAIR      64  48  55 S15G22    29.43F
FORT TOTTEN      N/A     65  48  54 S16       29.95S
ROLLA          FAIR      63  46  55 S14G21    29.39F
RUGBY          FAIR      61  48  63 SE13      29.37F
 ***** THE ABOVE OBSERVATIONS ARE NON NWS ARE NOT QUALITY
        CONTROLLED AND MAY MIS-REPORT RAIN FOR SNOW...
$$

 *****  OTHER OBSERVATIONS SOUTHEAST NORTH DAKOTA *****

CITY           SKY/WX    TMP DP  RH WIND       PRES   REMARKS
COOPERSTOWN    FAIR      68  48  49 S21G30    29.49F
VALLEY CITY    FAIR      68  50  52 S21G33    29.51F
OAKES          NOT AVBL
GWINNER        SUNNY     70  50  49 S23G30    29.55F
SHEYENNE NWR     N/A     71  50  46 S18       29.95S
BUFFALO        NOT AVBL
WYNDMERE       NOT AVBL
 ***** THE ABOVE OBSERVATIONS ARE NON NWS ARE NOT QUALITY
       CONTROLLED AND MAY MIS-REPORT RAIN FOR SNOW...
$$

  *****  WEATHER ACROSS NORTHERN MINNESOTA  *****

CITY           SKY/WX    TMP DP  RH WIND       PRES   REMARKS
FLAG ISLAND    FAIR      55  48  76 S7        29.58F
WARROAD        FAIR      68  54  60 SE13      29.58F
ROSEAU         FAIR      70  54  56 S14G20    29.55F
HALLOCK        FAIR      70  48  46 S28       29.48F
THF RVR FALLS  FAIR      72  49  44 S22       29.56F
HALSTAD        NOT AVBL
FOSSTON        FAIR      72  46  40 S16       29.59F
BAUDETTE       FAIR      68  50  52 S14       29.62F
WASKISH        FAIR      70  52  52 SE12G18   29.63F
CROOKSTON      FAIR      72  48  43 S25G32    29.53F
$$
  *****  WEATHER ACROSS CENTRAL AND WEST MINNESOTA  *****

CITY           SKY/WX    TMP DP  RH WIND       PRES   REMARKS
BEMIDJI        FAIR      69  49  48 S14       29.65F
PARK RAPIDS    FAIR      68  50  52 SE20      29.67F
WADENA         FAIR      66  52  59 S20       29.68F
DETROIT LAKES  FAIR      66  50  55 S20G25    29.64F
MOORHEAD       FAIR      68  48  49 S20G26    29.58F
FERGUS FALLS   FAIR      66  52  59 S23G31    29.64F
ELBOW LAKE     FAIR      66  51  59 S21G29    29.67F
MORRIS MN      FAIR      70  52  52 S21G28    29.67F
STAPLES        FAIR      66  48  52 S14G21    29.72F
WHEATON        FAIR      70  48  46 S23G29    29.63F
$$
  *****  WEATHER ELSEWHERE ACROSS MINNESOTA  *****

CITY           SKY/WX    TMP DP  RH WIND       PRES   REMARKS
DULUTH         FAIR      67  51  56 S13       29.81F
INTRNTL FALLS  FAIR      69  47  45 SE9       29.67F
ELY            FAIR      66  46  48 S14       29.77F
CLOQUET        FAIR      66  46  48 S14       29.81F
BRAINERD       FAIR      65  50  58 S20       29.76F
HIBBING        FAIR      66  48  52 S13G20    29.77F
ALEXANDRIA     FAIR      67  51  56 S18       29.72F
SAINT CLOUD    FAIR      68  52  56 S16       29.78F
MINNEAPOLIS    FAIR      72  52  49 S13G22    29.85F
$$

  *****  WEATHER ACROSS SOUTH DAKOTA  *****

CITY           SKY/WX    TMP DP  RH WIND       PRES   REMARKS
SIOUX FALLS    FAIR      68  55  63 S20G32    29.73F
BROOKINGS      FAIR      67  53  61 S25G33    29.69F
WATERTOWN      FAIR      67  52  58 S23G32    29.64F
HURON          FAIR      69  51  52 S20G31    29.60F
SISSETON         N/A     69  51  52 S21G29    29.59F
ABERDEEN       FAIR      65  50  58 S23G32    29.55F
MITCHELL       FAIR      70  52  52 S25G37    29.63F
PIERRE         FAIR      68  50  52 S20       29.49F
MOBRIDGE       FAIR      67  49  52 S17       29.43F
RAPID CITY     FAIR      72  35  25 S20       29.49F
$$

  *****  SOME WEATHER IN NEARBY STATES *****

CITY           SKY/WX    TMP DP  RH WIND       PRES   REMARKS
GLASGOW MT     FAIR      61  32  33 E9        29.26F
GREAT FALLS MT FAIR      65  24  21 S15       29.25F
CHEYENNE WY    FAIR      69  32  25 SW22      29.72F
SCOTTSBLUFF NE FAIR      59  42  53 VRB6      29.63F
OMAHA NE       PTSUNNY   70  55  59 S17       29.88F
DES MOINES IA  CLOUDY    70  52  52 S14G21    29.99F
DAVENPORT IA   FAIR      72  53  51 S9        30.12F
CHICAGO IL     FAIR      72  52  49 SW10      30.14F
EAU CLAIRE WI  FAIR      71  50  47 S16       29.93F
LA CROSSE WI   FAIR      70  53  54 S14       29.99F
$$

  *****  SOME NATIONAL WEATHER *****

CITY           SKY/WX    TMP DP  RH WIND       PRES   REMARKS
LA GUARDIA NY  FAIR      70  29  21 NW16      30.12F
RALEIGH NC     FAIR      73  50  44 VRB3      30.26F
ATLANTA GA     FAIR      74  42  31 E3        30.28F
NEW ORLEANS LA CLOUDY    80  71  74 NE8       30.13F
OKLAHOMA CITY  FAIR      73  58  59 SE17G30   30.00F
ALBUQUERQUE NM FAIR      59  49  69 SW7       30.04S
SALT LAKE CITY PTSUNNY   70  30  22 S21G31    29.62R
LOS ANGELES CA FAIR      68  57  68 W10       29.93S
BOISE ID       CLOUDY    43  43 100 W12       29.79R
SEATTLE WA     LGT RAIN  47  44  90 S15       29.72R
$$

*** WEATHER ACROSS MANITOBA...SASKATCHEWAN AND ONTARIO ***
                ***ONTARIO***

CITY           SKY/WX    TMP DP  RH WIND       PRES   REMARKS
GERALDTON      PTSUNNY   63  43  48 S5        29.86F
THUNDER BAY    MOSUNNY   59  46  63 NE8       29.83F
SIOUX LOOKOUT  MOSUNNY   63  46  55 S9        29.70F
TORONTO        MOSUNNY   66  43  42 S8        30.22F
BIG TROUT LK   MOSUNNY   39  34  81 SE9G18    29.88S
PICKLE LAKE    MOSUNNY   54  37  54 E7        29.77S
DRYDEN         SUNNY     61  45  55 SE8       29.67F
KENORA         MOSUNNY   63  48  59 S12G17    29.61F
$$
                *** MANITOBA***

CITY           SKY/WX    TMP DP  RH WIND       PRES   REMARKS
BRANDON        PTSUNNY   59  43  55 E17       29.34F
DAUPHIN        SUNNY     52  39  62 NW3       29.36F
ISLAND LAKE    NOT AVBL
PILOT MOUND      N/A     63  46  55 S18         N/A
THE PAS        CLOUDY    41  34  75 E10G18    29.47F
THOMPSON       CLOUDY    37  32  81 E7G22     29.70F
WINNIPEG       PTSUNNY   64  50  59 S16G22    29.46F
LYNN LAKE      CLOUDY    32  32 100 E16G22    29.61F WCI  21
CHURCHILL      CLOUDY    36  27  69 SE18      29.98R
GILLAM         CLOUDY    36  32  87 E13G20    29.84F
$$
                ***SASKATCHEWAN***

CITY           SKY/WX    TMP DP  RH WIND       PRES   REMARKS
ESTEVAN        MOSUNNY   59  36  41 S7        29.29F
KINDERSLEY     CLOUDY    55  37  50 NE9       29.22F
LLOYDMINSTER   CLOUDY    48  36  61 SW7       29.23F
PRINCE ALBERT  CLOUDY    45  36  70 E12       29.31F
REGINA         PTSUNNY   59  32  36 SE16      29.25F
YORKTON        SUNNY     63  36  36 SE12G17   29.32F



USA.gov is the U.S. government's official web portal to all federal, state and local government web resources and services.